Location: Chuathbaluk
(61.5726°N, 159.2454°W)
Time: 23:18:24
(UTC+00:00)

Vanguard 1 Rocket - All Passes

Search period start: 05 December 2020 00:00
Search period end: 15 December 2020 00:00
Orbit: 655 x 4221 km, 34.3° (Epoch: 05 December)

Date Brightness Start Highest point End Pass type
(mag) Time Alt. Az. Time Alt. Az. Time Alt. Az.
05 Dec - 09:42:25 10° SSW 09:59:35 24° SSE 10:15:40 10° ESE visible
05 Dec - 12:06:08 10° SW 12:26:02 31° S 12:42:15 10° SE visible
05 Dec - 14:34:49 10° WSW 14:51:57 25° SSW 15:04:52 10° SSE visible
05 Dec - 17:11:34 10° WSW 17:15:23 11° SW 17:18:54 10° SW visible
06 Dec - 08:33:20 10° S 08:47:31 19° SE 09:01:42 10° ESE visible
06 Dec - 10:53:59 10° SW 11:13:25 30° SSE 11:30:41 10° ESE visible
06 Dec - 13:20:40 10° WSW 13:39:58 29° SSW 13:55:04 10° SE visible
06 Dec - 15:52:13 10° WSW 16:04:42 18° SW 16:14:39 10° S visible
07 Dec - 07:27:18 10° SSE 07:36:00 13° SE 07:44:56 10° ESE night (unlit)
07 Dec - 09:42:55 10° SSW 10:00:53 27° SSE 10:18:13 10° ESE visible
07 Dec - 12:07:26 10° SW 12:27:32 31° S 12:44:24 10° SE visible
07 Dec - 14:36:36 10° WSW 14:53:22 24° SSW 15:06:29 10° SSE visible
08 Dec - 08:33:13 10° S 08:48:40 22° SE 09:04:38 10° ESE visible
08 Dec - 10:55:07 10° SW 11:14:50 31° S 11:32:54 10° ESE visible
08 Dec - 13:22:17 10° WSW 13:41:25 29° SSW 13:56:55 10° SSE visible
08 Dec - 15:54:48 10° WSW 16:05:56 16° SW 16:15:13 10° SSW visible
09 Dec - 07:25:33 10° SSE 07:36:58 16° SE 07:49:09 10° ESE visible
09 Dec - 09:43:49 10° SSW 10:02:11 29° SSE 10:20:32 10° ESE visible
09 Dec - 12:08:56 10° WSW 12:28:59 31° S 12:46:22 10° SE visible
09 Dec - 14:38:36 10° WSW 14:54:40 22° SW 15:07:46 10° S visible
10 Dec - 08:33:42 10° SSW 08:49:50 24° SSE 09:07:09 10° ESE visible
10 Dec - 10:56:32 10° SW 11:16:15 32° S 11:34:56 10° SE visible
10 Dec - 13:24:04 10° WSW 13:42:47 27° SSW 13:58:31 10° SSE visible
10 Dec - 15:58:07 10° WSW 16:07:01 13° SW 16:14:52 10° SSW visible
11 Dec - 07:25:08 10° S 07:38:00 19° SE 07:52:19 10° ESE visible
11 Dec - 09:45:03 10° SW 10:03:31 30° SSE 10:22:38 10° ESE visible
11 Dec - 12:10:38 10° WSW 12:30:22 31° SSW 12:48:08 10° SE visible
11 Dec - 14:40:53 10° WSW 14:55:52 20° SW 15:08:36 10° S visible
12 Dec - 06:19:52 10° SE 06:26:49 12° SE 06:34:19 10° ESE visible
12 Dec - 08:34:38 10° SSW 08:51:04 27° SSE 09:09:23 10° ESE visible
12 Dec - 10:58:08 10° SW 11:17:38 32° S 11:36:48 10° SE visible
12 Dec - 13:26:04 10° WSW 13:44:04 26° SSW 13:59:48 10° SSE visible
12 Dec - 16:03:16 10° WSW 16:08:00 11° WSW 16:12:28 10° SW visible
13 Dec - 07:25:29 10° S 07:39:07 21° SE 07:54:56 10° ESE visible
13 Dec - 09:46:33 10° SW 10:04:53 31° S 10:24:33 10° ESE visible
13 Dec - 12:12:31 10° WSW 12:31:43 30° SSW 12:49:39 10° SSE visible
13 Dec - 14:43:34 10° WSW 14:56:58 18° SW 15:08:52 10° SSW visible
14 Dec - 06:18:29 10° SSE 06:27:48 15° SE 06:38:26 10° ESE visible
14 Dec - 08:35:55 10° SSW 08:52:21 28° SSE 09:11:23 10° ESE visible
14 Dec - 10:59:58 10° WSW 11:19:02 32° S 11:38:26 10° SE visible
14 Dec - 13:28:18 10° WSW 13:45:17 23° SW 14:00:44 10° S visible
